Location: Fort Frances
(48.6170°N, 93.4170°W)
Time: 04:16:31
(UTC-05:00)

Daily predictions for brighter satellites

Satellite Brightness Start Highest point End
(mag) Time Altitude Azimuth Time Altitude Azimuth Time Altitude Azimuth
ATLAS 5 CENTAUR R/B 4.0 00:03:47 10° W 00:07:56 25° NNW 00:12:26 10° NNE
ATLAS 3B R/B 4.2 00:26:04 27° NE 00:26:04 27° NE 00:29:05 10° NE
USA 215 4.0 00:21:05 10° ENE 00:27:18 48° NNW 00:33:30 10° W
Cosmos 2297 Rocket 4.0 00:54:21 10° NNW 00:56:54 27° NNW 00:56:54 27° NNW
Cosmos 2369 Rocket 4.4 01:14:18 18° NW 01:14:53 18° NW 01:18:40 10° N
Cosmos 2227 Rocket 4.3 01:19:58 10° NNW 01:21:51 22° NW 01:21:51 22° NW
CZ-4C R/B 3.9 01:29:52 30° NNW 01:29:52 30° NNW 01:35:14 10° NE
Cosmos 1943 Rocket 4.4 01:50:13 18° NW 01:50:13 18° NW 01:53:54 10° N
Cosmos 2263 Rocket 4.3 01:51:27 10° N 01:55:37 21° NE 01:56:25 20° NE
COSMOS 2455 4.3 01:59:07 32° NNE 01:59:07 32° NNE 02:02:13 10° NE
USA 215 4.1 02:03:29 10° ENE 02:09:37 45° N 02:15:46 10° WNW
ATLAS 3B R/B 3.6 02:13:16 44° NNW 02:13:16 44° NNW 02:19:50 10° NE
SL-16 R/B 3.6 02:33:25 38° ENE 02:33:43 38° ENE 02:39:23 10° N
NOSS 3-2 (A) 4.2 02:44:16 52° N 02:44:16 52° N 02:49:42 10° NE
Cosmos 2322 Rocket 3.7 02:58:57 29° E 02:58:57 29° E 03:02:38 10° NE
SL-16 R/B 3.6 03:04:10 32° E 03:04:10 32° E 03:08:10 10° NE
Resurs 1-4 Rocket 3.5 03:04:09 10° NNE 03:08:11 32° ENE 03:08:11 32° ENE
Cosmos 1697 Rocket 3.7 03:11:50 41° N 03:11:50 41° N 03:15:47 10° NNE
CZ-2D R/B 3.4 03:06:15 10° NNE 03:10:47 35° E 03:10:47 35° E
Lacrosse 4 Rocket 4.1 03:16:07 10° NNW 03:17:01 15° N 03:17:01 15° N
NPP 4.4 03:18:17 10° NNE 03:22:08 48° N 03:22:08 48° N
Cosmos 2360 Rocket 3.9 03:27:51 22° ESE 03:28:37 23° ESE 03:32:57 10° NE
Cosmos 1980 Rocket 2.8 03:30:15 51° N 03:30:15 51° N 03:34:41 10° NNE
NOSS 3-2 (C) 4.1 03:31:51 46° NW 03:32:04 46° NW 03:38:44 10° NE
ADEOS Rocket 3.4 03:31:35 10° NNE 03:36:57 46° E 03:37:11 45° ESE
Cosmos 2263 Rocket 3.2 03:34:44 10° NNW 03:38:04 37° NNW 03:38:04 37° NNW
ATLAS 5 CENTAUR R/B 4.2 03:36:15 10° NNW 03:41:05 28° NNE 03:46:18 10° E
COSMOS 2455 4.3 03:42:14 25° NW 03:42:55 25° NNW 03:47:52 10° NNE
CENTAUR R/B 2.5 03:43:40 85° NW 03:43:40 85° NW 03:50:49 10° NE
USA 81 4.4 03:48:30 58° N 03:48:30 58° N 03:52:44 10° N
Cosmos 1992 Rocket 4.4 03:52:45 58° N 03:52:45 58° N 03:57:04 10° NNE
USA 215 3.4 03:45:39 10° ESE 03:52:11 72° NNE 03:58:43 10° NW
ADEOS 3.7 03:49:02 10° NNE 03:53:46 72° NE 03:53:46 72° NE
DNEPR-1 R/B 4.2 03:55:58 73° ENE 03:55:58 73° ENE 04:00:34 10° NE
Meteor 1-5 Rocket 4.4 03:50:15 10° NNW 03:54:31 59° NNW 03:54:31 59° NNW
UNKNOWN OBJECT B 4.3 04:00:52 10° NNE 04:03:13 33° NE 04:03:13 33° NE
Spot 4 Rocket 4.2 04:01:05 10° N 04:05:37 62° NNW 04:05:37 62° NNW
Cosmos 2315 Rocket 3.8 04:06:00 73° SSW 04:06:39 85° W 04:12:55 10° N
ARIANE 5 R/B 2.5 04:09:32 10° N 04:14:22 70° NW 04:14:22 70° NW
SL-16 R/B 3.1 04:18:29 40° WNW 04:18:29 40° WNW 04:23:13 10° NNW
Cosmos 1709 Rocket 4.1 04:11:37 10° NNW 04:17:18 53° W 04:17:18 53° W
Cosmos 1500 3.9 04:20:54 10° N 04:24:41 52° ENE 04:24:41 52° ENE
Cosmos 1544 Rocket 3.6 04:24:44 10° N 04:29:14 81° E 04:29:33 75° SE
BREEZE M DEB (TANK) 4.3 04:07:39 10° W 04:29:14 89° N 04:34:29 10° E
Cosmos 2074 Rocket 3.9 04:25:17 10° N 04:31:36 89° WSW 04:35:49 22° S
MOS 1 Rocket 3.9 04:27:13 10° NNE 04:31:52 50° E 04:33:35 33° SSE
Okean 1 4.1 04:31:57 44° SE 04:32:41 50° E 04:36:39 10° NNE
IRS-1D 4.0 04:35:05 10° N 04:39:37 42° WNW 04:39:37 42° WNW
Cosmos 2322 Rocket 2.5 04:40:45 45° W 04:41:35 48° NW 04:47:01 10° NNE
Cosmos 1975 2.8 04:38:25 10° N 04:42:31 84° E 04:42:59 69° SSE
Cosmos 1777 Rocket 4.1 04:41:38 10° NNW 04:46:47 53° WSW 04:46:58 52° WSW
SL-16 R/B 2.6 04:46:02 41° W 04:47:04 46° NW 04:52:33 10° NNE
Resurs 1-4 Rocket 2.6 04:43:59 10° N 04:48:51 39° WNW 04:49:17 38° WNW
SL-8 R/B 3.6 04:48:52 57° W 04:49:50 85° S 04:54:37 10° E
Okean O Rocket 2.5 04:46:36 10° NNE 04:50:55 48° E 04:54:01 18° SSE
CZ-2D R/B 2.7 04:46:20 10° N 04:51:24 39° WNW 04:52:08 37° W
PSLV R/B 4.2 04:47:55 10° NNE 04:51:37 55° E 04:52:53 36° SSE
CZ-2C R/B 4.4 04:49:51 10° SSE 04:54:19 56° ENE 04:58:44 10° N
Cosmos 2219 Rocket 3.9 04:49:43 10° SSE 04:54:26 29° ESE 04:59:10 10° NE
COSMOS 2428 3.4 04:51:56 18° S 04:55:55 50° ESE 05:01:24 10° NE
Genesis I 4.0 04:57:15 37° NW 04:57:22 37° NW 05:01:04 10° NNE
Cosmos 1844 Rocket 2.7 04:52:06 10° NNW 04:57:44 84° ENE 05:03:18 10° SSE
Lacrosse 4 Rocket4.205:03:25SSE05:03:25SSE04:53:16NW
Cosmos 1455 Rocket 3.1 04:58:34 10° NNW 05:02:53 56° W 05:03:47 46° SW
Cosmos 2184 Rocket 4.1 05:02:10 10° NNW 05:08:09 52° W 05:12:43 18° SSW
CZ-4C R/B 4.3 05:04:45 10° NW 05:10:45 34° NNE 05:17:25 10° E
Cosmos 2360 Rocket 2.2 05:09:38 33° SW 05:12:08 65° WNW 05:17:47 10° NNE
ADEOS II 2.4 05:07:37 10° NNE 05:12:53 67° ESE 05:18:06 10° S
Cosmos 1975 Rocket 4.0 05:13:10 28° WNW 05:13:10 28° WNW 05:16:53 10° N
Cosmos 2278 Rocket 3.0 05:07:38 10° NNW 05:13:13 53° NE 05:18:44 10° SE
Cosmos 1980 Rocket 4.0 05:12:01 14° WNW 05:14:12 17° NW 05:17:48 10° N
Cosmos 1812 3.5 05:15:11 34° WNW 05:15:11 34° WNW 05:18:39 10° N
Cosmos 1340 2.8 05:19:10 42° SW 05:20:04 54° WNW 05:23:49 10° N
ADEOS Rocket 3.7 05:17:31 10° N 05:22:20 30° WNW 05:24:09 25° W
Cosmos 2237 Rocket 4.1 05:17:33 10° SSE 05:22:22 29° ESE 05:27:13 10° NE
Cosmos 962 Rocket 4.5 05:19:33 10° N 05:25:51 89° W 05:32:11 10° S
ATLAS 5 CENTAUR R/B 2.5 05:20:42 10° NW 05:26:35 82° NE 05:33:01 10° SE
Cosmos 1666 2.8 05:23:05 10° N 05:26:59 77° E 05:30:51 10° SSE
SAR-Lupe-3 4.4 05:23:45 10° SSE 05:27:20 85° WSW 05:30:58 10° NNW
Meteor 2-4 Rocket 4.4 05:23:44 10° S 05:29:08 55° E 05:34:27 10° NNE
Cosmos 1536 Rocket 3.8 05:30:12 23° SW 05:32:47 52° WNW 05:37:12 10° N
Cosmos 2208 Rocket 4.0 05:29:24 16° SSW 05:33:53 81° WNW 05:39:22 10° NNE
Cosmos 1743 2.8 05:30:39 10° NNW 05:34:27 54° W 05:38:12 10° S
CENTAUR R/B 3.8 05:30:50 16° WNW 05:35:23 33° NNW 05:41:57 10° NE
USA 215 3.5 05:29:12 10° SSE 05:35:26 45° SW 05:41:42 10° WNW
ERBS 4.0 05:32:29 10° NW 05:35:41 32° NNE 05:38:53 10° E
PAYLOAD B 4.2 05:30:31 10° NNE 05:36:09 79° WNW 05:41:45 10° SSW
PSLV R/B 3.5 05:36:47 10° N 05:41:08 76° WNW 05:45:29 10° SSW
CZ-4B R/B 2.8 05:38:24 10° N 05:41:55 49° WNW 05:44:12 20° SW
Cosmos 1867 3.5 05:36:26 10° NW 05:41:55 78° SW 05:47:21 10° SSE
Cosmos 2154 Rocket 4.1 05:36:10 10° NNW 05:42:09 53° W 05:48:07 10° SSW
MTI 4.3 05:40:00 15° SSW 05:42:22 37° W 05:45:29 10° NNW
Cosmos 2333 Rocket 2.9 05:38:03 10° S 05:43:36 55° ESE 05:49:12 10° NE
Meteor 1-31 Rocket 3.7 05:40:42 10° NNE 05:44:25 49° E 05:48:07 10° S
USA 229 DEB 4.2 05:39:11 10° SSW 05:45:53 61° ESE 05:52:44 10° NE
USA 229 4.2 05:39:18 10° SSW 05:46:00 60° ESE 05:52:50 10° NE
Cosmos 2322 4.3 05:46:43 18° WSW 05:50:33 42° NW 05:55:59 10° NNE
ARIANE 5 R/B 4.4 05:50:37 10° NNW 05:52:54 13° NW 05:54:43 11° WNW
Okean 1-7 Rocket 3.6 05:48:48 10° S 05:53:19 88° WNW 05:57:49 10° N
EO 1 Del DPAF 4.0 05:50:27 10° SSW 05:53:52 30° W 05:57:19 10° NW
Meteor PRIRODA 3.6 05:54:07 10° NNE 05:57:54 84° WNW 06:01:40 10° SSW
ATLAS 3B R/B 4.5 05:52:46 10° NW 05:58:42 28° NNE 06:04:23 10° ENE
Cosmos 1606 Rocket 3.7 05:55:33 10° N 06:00:03 84° E 06:04:32 10° S
Cosmos 990 Rocket 4.0 05:55:22 10° NNW 06:00:36 88° WSW 06:05:46 10° SSE
Cosmos 2150 Rocket 4.0 05:56:26 10° NNW 06:01:41 68° WSW 06:06:59 10° S
SL-8 Rocket 3.9 05:55:47 10° NNW 06:02:01 78° W 06:08:11 10° S
Thor Agena Rocket 3.5 05:57:29 10° SSE 06:02:33 89° W 06:07:38 10° NNW
Cosmos 1844 4.1 06:00:44 10° NW 06:06:06 41° WSW 06:11:23 10° S
Iridium 2 3.6 06:02:21 10° N 06:06:11 80° W 06:10:00 10° S
Tiangong 2 3.4 06:06:49 10° SW 06:07:10 10° SSW 06:07:31 10° SSW
Cosmos 1898 Rocket 3.7 06:02:30 10° NNW 06:07:30 47° WSW 06:12:26 10° S
Cosmos 2181 Rocket 4.0 06:01:38 10° SSW 06:07:49 69° WNW 06:14:10 10° N
Cosmos 2333 4.4 06:04:06 10° SW 06:09:40 58° WNW 06:15:20 10° NNE
Cosmos 468 Rocket 4.0 06:05:09 10° SSW 06:10:21 88° WNW 06:15:39 10° NNE
CZ-4B R/B 3.6 06:07:19 10° N 06:12:42 46° WNW 06:18:00 10° SW
ERS-2 2.2 06:12:58 10° N 06:16:40 63° WNW 06:20:18 10° SSW
SL-16 R/B 3.9 06:13:43 10° S 06:18:47 35° ESE 06:23:53 10° NE
Cosmos 1238 Rocket 3.7 06:21:11 10° WSW 06:23:20 18° WNW 06:25:32 10° NNW
Cosmos 2228 3.3 06:20:13 10° N 06:24:34 77° ENE 06:28:55 10° SSE
Okean O Rocket 3.0 06:23:34 10° NNW 06:27:01 22° WNW 06:30:27 10° WSW
Cosmos 2322 Rocket 4.2 06:24:24 10° WNW 06:27:06 13° NNW 06:29:49 10° N
Cosmos 1980 3.7 06:23:27 10° SSW 06:29:07 87° WNW 06:34:49 10° NNE
Cosmos 2218 Rocket 4.1 06:22:51 10° NNW 06:29:08 60° W 06:35:20 10° S
Cosmos 405 3.2 06:25:48 10° N 06:29:23 78° E 06:32:55 10° SSE
SL-8 R/B 4.2 06:27:38 10° W 06:32:09 42° SSW 06:36:40 10° SE
SL-16 R/B 4.2 06:30:05 10° WNW 06:32:44 13° NNW 06:35:23 10° N
COSMO-SKYMED 1 2.5 06:30:17 10° S 06:34:36 70° WSW 06:38:58 10° NNW
Cosmos 1726 Rocket 3.8 06:30:40 10° NNW 06:34:59 52° W 06:39:19 10° S
Cosmos 1809 Rocket 4.5 06:29:55 10° NNW 06:36:05 69° W 06:42:11 10° S
Cosmos 1937 Rocket 4.0 06:31:41 10° NW 06:36:35 38° WSW 06:41:26 10° S
